ROMMA est une association bénévole à but non lucratif. Votre soutien est indispensable : ADHERER à ROMMA ou FAIRE un DON

Chamrousse - (38, Isère)

Massif de Belledonne (1800 m)   Longitude: 05° 52' 28" E   Latitude: 45° 06' 28" N Station partenaire n°3
 

Détail journalier du     <<     >>

Température Precipitation Humidité Pression Vent Dir Rafale Dir. rafale
Heure (°C) (mm) (%) (hPa) (km/h) (km/h)
01:00 6.408610133NNO10NNO
02:00 6.808010113N11N
03:00 6.407610114N13NNE
04:00 6.806510118NNE16ENE
05:00 6.8069101110NE21ENE
06:00 6.305910113NE16E
07:00 7.1048101114E21E
08:00 8.304810125ENE15ENE
09:00 9.704810123E15E
10:00 9.704810121ESE11ESE
11:00 10.605910115SSO16SO
12:00 9.805710124O16SO
13:00 9.906110113SO13SO
14:00 10.705010113OSO15OSO
15:00 11.605510107OSO21S
16:00 11.306010105SSO18SSO
17:00 9.707410106OSO23O
18:00 10.406910103ONO15SSO
19:00 8.30.46910108SSE23SSE
20:00 8.207410107S23SSO
21:00 7.407610106SSO23SSO
22:00 7.108110116SSO16SSO
23:00 7.008310101S11SSO
minuit 6.807710106SSE15SE

Graphique du 14-05-2008

 

Serveur OMMA